Hakozaki Maru — JJ3662 — position and weather

sailwx.info

Track history (hours):
 
Tides and Currents Weather Stations Pressure Air Temp Water Temp Dewpoint Dewpoint Depression Visibility Wind Speed Wind Dir Waves Ship Positions

Hakozaki Maru

Last reported at 2014-Nov-22 22:33 UTC. Time now 2014-Nov-23 22:18 UTC.
Position N 34°42' E 135°16'.

Length 31 m; draft 2.5 m.

Type: Tug. MMSI: 431000322.

Date/timePositionNaut miles runAvg speedWind from/ knotsBaromVisibWave heightAir tempDewpointWater temp
2014-Nov-22 22:33N 34°42' E 135°16'2 1.6
2014-Nov-22 21:33N 34°41' E 135°16'3 2.8
2014-Nov-22 20:33N 34°41' E 135°12'2 0.1
2014-Nov-21 10:33N 34°40' E 135°14'0 0.2
2014-Nov-21 09:33N 34°40' E 135°14'0 0.0
2014-Nov-21 08:33N 34°40' E 135°14'0 0.0
2014-Nov-21 07:33N 34°40' E 135°14'2 1.6
2014-Nov-21 06:33N 34°41' E 135°13'0 0.4
2014-Nov-21 05:33N 34°41' E 135°12'0 0.0
2014-Nov-21 04:33N 34°41' E 135°12'0 0.0
2014-Nov-21 03:33N 34°41' E 135°12'0 0.0
2014-Nov-21 02:33N 34°41' E 135°12'0 0.0
2014-Nov-21 01:33N 34°41' E 135°12'0 0.0
2014-Nov-21 00:33N 34°41' E 135°12'1 0.8
2014-Nov-20 23:33N 34°41' E 135°13'2 1.5
2014-Nov-20 22:33N 34°42' E 135°15'1 1.4
2014-Nov-20 21:33N 34°41' E 135°14'1 1.3
2014-Nov-20 20:33N 34°41' E 135°12'0 0.0
2014-Nov-20 05:17N 34°41' E 135°12'0 0.0
2014-Nov-20 04:33N 34°41' E 135°12'0 0.0
2014-Nov-20 03:33N 34°41' E 135°12'2 1.6
2014-Nov-20 02:33N 34°41' E 135°14'2 2.1
2014-Nov-20 01:33N 34°39' E 135°16'4 3.5
2014-Nov-20 00:33N 34°41' E 135°12'0 0.0
2014-Nov-19 23:33N 34°41' E 135°12'0 0.0
2014-Nov-19 05:33N 34°41' E 135°12'2 2.2
2014-Nov-19 04:33N 34°42' E 135°15'2 2.0
2014-Nov-19 03:33N 34°41' E 135°13'0 0.3
2014-Nov-19 02:33N 34°41' E 135°12'0 0.0
2014-Nov-19 01:33N 34°41' E 135°12'0 0.0
2014-Nov-19 00:33N 34°41' E 135°12'0 0.0
2014-Nov-18 23:33N 34°41' E 135°12'4 0.1
2014-Nov-17 08:33N 34°41' E 135°18'4 3.8
2014-Nov-17 07:33N 34°40' E 135°13'0 0.0
2014-Nov-17 06:33N 34°40' E 135°13'1 1.1
2014-Nov-17 05:33N 34°40' E 135°14'2 2.0
2014-Nov-17 04:33N 34°41' E 135°12'0 0.0
2014-Nov-17 03:33N 34°41' E 135°12'0 0.0
2014-Nov-17 02:33N 34°41' E 135°12'0 0.0
2014-Nov-17 01:33N 34°41' E 135°12'0 0.0
2014-Nov-17 00:33N 34°41' E 135°12'1 1.1
2014-Nov-16 23:33N 34°41' E 135°14'1 1.1
2014-Nov-16 22:33N 34°40' E 135°15'1 1.1
2014-Nov-16 21:33N 34°41' E 135°14'1 1.2
2014-Nov-16 20:33N 34°41' E 135°12'0 0.0
2014-Nov-16 05:33N 34°41' E 135°12'0 0.0
2014-Nov-16 04:33N 34°41' E 135°12'2 2.4
2014-Nov-16 03:33N 34°42' E 135°15'0 0.0
2014-Nov-16 02:33N 34°42' E 135°15'1 0.5
2014-Nov-16 01:33N 34°42' E 135°15'1 1.4
2014-Nov-16 00:33N 34°41' E 135°15'2 2.1
2014-Nov-15 23:32N 34°41' E 135°12'0 0.2
2014-Nov-15 22:33N 34°41' E 135°12'  
2014-Nov-13 07:32N 34°41' E 135°17'1 0.8
2014-Nov-13 06:33N 34°41' E 135°18'1 1.3
2014-Nov-13 05:33N 34°42' E 135°17'0 0.0
2014-Nov-13 04:32N 34°42' E 135°17'1 0.8
2014-Nov-13 03:33N 34°42' E 135°16'3 3.5
2014-Nov-13 02:33N 34°41' E 135°12'0 0.0
2014-Nov-13 01:33N 34°41' E 135°12'0 0.0
2014-Nov-13 00:32N 34°41' E 135°12'0 0.0
2014-Nov-12 23:33N 34°41' E 135°12'  
Track history (hours):
 
Tides and Currents Weather Stations Pressure Air Temp Water Temp Dewpoint Dewpoint Depression Visibility Wind Speed Wind Dir Waves Ship Positions

Hakozaki Maru

Last reported at 2014-Nov-22 22:33 UTC. Time now 2014-Nov-23 22:18 UTC.
Position N 34°42' E 135°16'.

Length 31 m; draft 2.5 m.

Type: Tug. MMSI: 431000322.

Date/timePositionNaut miles runAvg speedWind from/ knotsBaromVisibWave heightAir tempDewpointWater temp
2014-Nov-22 22:33N 34°42' E 135°16'2 1.6
2014-Nov-22 21:33N 34°41' E 135°16'3 2.8
2014-Nov-22 20:33N 34°41' E 135°12'2 0.1
2014-Nov-21 10:33N 34°40' E 135°14'0 0.2
2014-Nov-21 09:33N 34°40' E 135°14'0 0.0
2014-Nov-21 08:33N 34°40' E 135°14'0 0.0
2014-Nov-21 07:33N 34°40' E 135°14'2 1.6
2014-Nov-21 06:33N 34°41' E 135°13'0 0.4
2014-Nov-21 05:33N 34°41' E 135°12'0 0.0
2014-Nov-21 04:33N 34°41' E 135°12'0 0.0
2014-Nov-21 03:33N 34°41' E 135°12'0 0.0
2014-Nov-21 02:33N 34°41' E 135°12'0 0.0
2014-Nov-21 01:33N 34°41' E 135°12'0 0.0
2014-Nov-21 00:33N 34°41' E 135°12'1 0.8
2014-Nov-20 23:33N 34°41' E 135°13'2 1.5
2014-Nov-20 22:33N 34°42' E 135°15'1 1.4
2014-Nov-20 21:33N 34°41' E 135°14'1 1.3
2014-Nov-20 20:33N 34°41' E 135°12'0 0.0
2014-Nov-20 05:17N 34°41' E 135°12'0 0.0
2014-Nov-20 04:33N 34°41' E 135°12'0 0.0
2014-Nov-20 03:33N 34°41' E 135°12'2 1.6
2014-Nov-20 02:33N 34°41' E 135°14'2 2.1
2014-Nov-20 01:33N 34°39' E 135°16'4 3.5
2014-Nov-20 00:33N 34°41' E 135°12'0 0.0
2014-Nov-19 23:33N 34°41' E 135°12'0 0.0
2014-Nov-19 05:33N 34°41' E 135°12'2 2.2
2014-Nov-19 04:33N 34°42' E 135°15'2 2.0
2014-Nov-19 03:33N 34°41' E 135°13'0 0.3
2014-Nov-19 02:33N 34°41' E 135°12'0 0.0
2014-Nov-19 01:33N 34°41' E 135°12'0 0.0
2014-Nov-19 00:33N 34°41' E 135°12'0 0.0
2014-Nov-18 23:33N 34°41' E 135°12'4 0.1
2014-Nov-17 08:33N 34°41' E 135°18'4 3.8
2014-Nov-17 07:33N 34°40' E 135°13'0 0.0
2014-Nov-17 06:33N 34°40' E 135°13'1 1.1
2014-Nov-17 05:33N 34°40' E 135°14'2 2.0
2014-Nov-17 04:33N 34°41' E 135°12'0 0.0
2014-Nov-17 03:33N 34°41' E 135°12'0 0.0
2014-Nov-17 02:33N 34°41' E 135°12'0 0.0
2014-Nov-17 01:33N 34°41' E 135°12'0 0.0
2014-Nov-17 00:33N 34°41' E 135°12'1 1.1
2014-Nov-16 23:33N 34°41' E 135°14'1 1.1
2014-Nov-16 22:33N 34°40' E 135°15'1 1.1
2014-Nov-16 21:33N 34°41' E 135°14'1 1.2
2014-Nov-16 20:33N 34°41' E 135°12'0 0.0
2014-Nov-16 05:33N 34°41' E 135°12'0 0.0
2014-Nov-16 04:33N 34°41' E 135°12'2 2.4
2014-Nov-16 03:33N 34°42' E 135°15'0 0.0
2014-Nov-16 02:33N 34°42' E 135°15'1 0.5
2014-Nov-16 01:33N 34°42' E 135°15'1 1.4
2014-Nov-16 00:33N 34°41' E 135°15'2 2.1
2014-Nov-15 23:32N 34°41' E 135°12'0 0.2
2014-Nov-15 22:33N 34°41' E 135°12'  
2014-Nov-13 07:32N 34°41' E 135°17'1 0.8
2014-Nov-13 06:33N 34°41' E 135°18'1 1.3
2014-Nov-13 05:33N 34°42' E 135°17'0 0.0
2014-Nov-13 04:32N 34°42' E 135°17'1 0.8
2014-Nov-13 03:33N 34°42' E 135°16'3 3.5
2014-Nov-13 02:33N 34°41' E 135°12'0 0.0
2014-Nov-13 01:33N 34°41' E 135°12'0 0.0
2014-Nov-13 00:32N 34°41' E 135°12'0 0.0
2014-Nov-12 23:33N 34°41' E 135°12'  

Dump ship's entire track history